OneWeb SL0368

operational
NORAD ID: 49294 Int'l Des: 2021-090 Owner: ONEWEBN Country: UK Constellation: oneweb
LEOCIRCULARPOLARONEWEB_TYPE

关于 OneWeb SL0368

正在加载描述...

实时位置

正在加载3D地球...

即将过境

高度历史

Altitude vs Time

uPlot chart will show altitude changes over time

两行轨道根数

1 49294U 21090R 26035.71334072 .00000030 00000-0 42556-4 0 9992
2 49294 87.9213 300.9009 0001444 48.6174 311.5084 13.20770371213496
Epoch: Feb 4, 2026 • Age: 8 hours

当前状态

高度 1186.6 km
速度 7.26 km/s
星下点 -6.47°S, 34.14°W
发射日期 Oct 14, 2021
运行时间 4.3 years
类型 internet

技术详情

分类 Payload
质量 148.00 kg
干质量 140.00 kg
总质量 148.00 kg
长度 1.30 m
直径 1.00 m
跨度 5.00 m
形状 Trapezoid+2 pan
制造商 ONEWUS
平台类型 ARROW
阶段状态 In Orbit
所有者/国家 ONEWEBN/UK

大型星座

Loading constellations...